Casper, WY (82601)

5:17 AM MST on February 27, 2017 (GMT -0700)
Grant Avenue | | Change Station

Elev 5164 ft 42.84 °N, 106.32 °W | Updated 2 minutes ago

Overcast
Overcast
28.2 °F
Feels Like 28 °F
N
2.5
Wind Variable Wind from West
Gusts 7.5 mph

Today
High -- | Low -- °F
--% Chance of Precip.
Yesterday
High -- | Low -- °F
Precip. -- in
Pressure 29.67 in
Visibility 10.0 miles
Clouds Mostly Cloudy 7000 ft
Overcast 9500 ft
Windchill 28 °F
Dew Point 17 °F
Humidity 63%
Rainfall 0.00 in
Snow Depth Not available.
6:43 AM 5:52 PM
New Moon, 1% visible
METAR KCPR 271153Z AUTO 24009KT 10SM BKN070 OVC095 M05/M11 A2956 RMK AO2 SLP045 T10501106 11044 21083 58022
Pressure 29.67 in
Visibility 10.0 miles
Clouds Mostly Cloudy 7000 ft
Overcast 9500 ft
Windchill 28 °F
Dew Point 17 °F
Humidity 63%
Rainfall 0.00 in
Snow Depth Not available.
6:43 AM 5:52 PM
New Moon, 1% visible
METAR KCPR 271153Z AUTO 24009KT 10SM BKN070 OVC095 M05/M11 A2956 RMK AO2 SLP045 T10501106 11044 21083 58022

Get Your Daily Forecast Email!

Thanks for signing up!

Be on the lookout for a verification email in your inbox.

You'll start receiving the daily forecast at 8 AM.

×

10-Day Weather Forecast

Almanac

Astronomy

Feb. 27, 2017 Rise Set
Actual Time
Civil Twilight
Nautical Twilight
Astronomical Twilight
Moon
Length of Visible Light
Length of Day
Tomorrow will be .
, % of the Moon is Illuminated

Today's Extremes

State Highs State Lows

Community

WunderPhotos

Upload Photos

1,962,540 photos uploaded!

WunderBlog® & News

Nearby

Air Quality

  Air Quality AQ Index Pollutant
Not available.

Snow Depth

Station Depth Elevation

Earthquake Activity

City Distance Mag. Time & Date
Minimum magnitude displayed is 2.5.

Coastal Water Temperatures

Place Temperature

Stations

Nearby Weather Stations

Station Location Temp. Windchill Dew Point Humidity Wind Precip. Elev Updated Type
                   

Watches & Warnings

There are currently no watches in effect.